User: anonymous   Login
Location: Castiglione Fibocchi
(43.5333°N, 11.7667°E)
Time: 07:27:38
(UTC+00:00)
Language:

IRAS Rocket - Orbit

View from above orbital plane
View from above orbital plane
View from above satellite
View from above satellite

Ground track
Ground track

The orbit data is extracted from the following two-line orbital elements,

1 13778U 83004B   20295.27135409 -.00000041 +00000-0 +70963-5 0  9996
2 13778 100.0662 074.5513 0021698 113.6998 246.6447 14.09030987938870
Epoch (UTC): 21 October 2020 06:30:44
Eccentricity: 0.0021698
inclination: 100.0662°
perigee height: 847 km
apogee height: 878 km
right ascension of ascending node: 74.5513°
argument of perigee: 113.6998°
revolutions per day: 14.09030987
mean anomaly at epoch: 246.6447°
orbit number at epoch: 93887

The dashed part of the orbit path shows where the satellite is in the earth's shadow,  

DLR